| time (UTC) | temp C | wind direction | speed KPH | gust KPH | rain 1hr cm | rain 24hr cm | rain mn cm | humidity % | barometer mb |
| 20260509234505 | 16 | 236 | 11.3 | 32.2 | 0.00 | 1.02 | 0.00 | 75 | 1002.0 |
| 20260509234005 | 16 | 255 | 16.1 | 32.2 | 0.00 | 1.02 | 0.00 | 75 | 1002.0 |
| 20260509233506 | 16 | 242 | 14.5 | 25.7 | 0.00 | 1.02 | 0.00 | 76 | 1002.1 |
| 20260509233005 | 16 | 253 | 12.9 | 25.7 | 0.00 | 1.02 | 0.00 | 75 | 1002.1 |
| 20260509232005 | 16 | 240 | 12.9 | 29.0 | 0.00 | 1.02 | 0.00 | 76 | 1002.4 |
| 20260509231506 | 15 | 244 | 16.1 | 29.0 | 0.00 | 1.02 | 0.00 | 76 | 1002.5 |
| 20260509231005 | 15 | 248 | 12.9 | 24.1 | 0.00 | 1.02 | 0.00 | 76 | 1002.5 |
| 20260509230006 | 15 | 242 | 9.7 | 24.1 | 0.00 | 1.02 | 0.00 | 77 | 1002.6 |
| 20260509225506 | 15 | 245 | 4.8 | 20.9 | 0.00 | 1.02 | 0.00 | 78 | 1002.6 |
| 20260509225006 | 15 | 233 | 14.5 | 20.9 | 0.00 | 1.02 | 0.00 | 76 | 1002.6 |
| 20260509224505 | 15 | 260 | 9.7 | 20.9 | 0.00 | 1.02 | 0.00 | 78 | 1002.5 |
| 20260509224005 | 15 | 256 | 8.0 | 20.9 | 0.00 | 1.02 | 0.00 | 77 | 1002.5 |
| 20260509223005 | 15 | 225 | 3.2 | 14.5 | 0.00 | 1.02 | 0.00 | 78 | 1002.5 |
| 20260509222505 | 15 | 277 | 4.8 | 19.3 | 0.00 | 1.02 | 0.00 | 78 | 1002.5 |
| 20260509221505 | 15 | 264 | 6.4 | 22.5 | 0.00 | 1.02 | 0.00 | 78 | 1002.5 |
| 20260509221005 | 15 | 256 | 14.5 | 22.5 | 0.00 | 1.02 | 0.00 | 76 | 1002.5 |
| 20260509220005 | 15 | 243 | 9.7 | 20.9 | 0.00 | 1.02 | 0.00 | 79 | 1002.5 |
| 20260509215505 | 15 | 259 | 8.0 | 16.1 | 0.00 | 1.02 | 0.00 | 79 | 1002.5 |
| 20260509215005 | 15 | 239 | 4.8 | 14.5 | 0.00 | 1.02 | 0.00 | 81 | 1002.5 |
| 20260509214505 | 15 | 235 | 3.2 | 14.5 | 0.00 | 1.02 | 0.00 | 81 | 1002.5 |
| 20260509214005 | 15 | 218 | 3.2 | 16.1 | 0.00 | 1.02 | 0.00 | 81 | 1002.5 |
| 20260509213505 | 14 | 259 | 6.4 | 16.1 | 0.00 | 1.02 | 0.00 | 81 | 1002.5 |
| 20260509213005 | 14 | 246 | 6.4 | 16.1 | 0.00 | 1.02 | 0.00 | 83 | 1002.5 |
| 20260509212505 | 13 | 205 | 4.8 | 11.3 | 0.00 | 1.02 | 0.00 | 85 | 1002.5 |
| 20260509212005 | 13 | 309 | 1.6 | 4.8 | 0.00 | 1.02 | 0.00 | 85 | 1002.5 |
| 20260509211005 | 13 | 339 | 1.6 | 8.0 | 0.00 | 1.02 | 0.00 | 85 | 1002.5 |
| 20260509210005 | 12 | 301 | 3.2 | 4.8 | 0.00 | 1.02 | 0.00 | 86 | 1002.5 |
| 20260509205505 | 12 | 321 | 1.6 | 9.7 | 0.00 | 1.02 | 0.00 | 86 | 1002.5 |
| 20260509205006 | 12 | 271 | 3.2 | 9.7 | 0.00 | 1.02 | 0.00 | 87 | 1002.5 |
| 20260509204506 | 12 | 306 | 1.6 | 9.7 | 0.00 | 1.02 | 0.00 | 88 | 1002.5 |
| 20260509203505 | 11 | 330 | 6.4 | 12.9 | 0.00 | 1.02 | 0.00 | 89 | 1002.6 |
| 20260509203005 | 11 | 318 | 3.2 | 8.0 | 0.00 | 1.02 | 0.00 | 89 | 1002.6 |
| 20260509202506 | 11 | 315 | 3.2 | 8.0 | 0.00 | 1.02 | 0.00 | 90 | 1002.6 |
| 20260509201006 | 10 | 278 | 1.6 | 4.8 | 0.00 | 1.02 | 0.00 | 91 | 1002.6 |
| 20260509200005 | 10 | 288 | 1.6 | 3.2 | 0.00 | 1.02 | 0.00 | 92 | 1002.7 |
| 20260509195505 | 10 | 325 | 1.6 | 3.2 | 0.00 | 1.02 | 0.00 | 92 | 1002.6 |
| 20260509193506 | 9 | 265 | 1.6 | 4.8 | 0.00 | 1.02 | 0.00 | 93 | 1002.6 |
| 20260509193005 | 9 | 279 | 0.0 | 3.2 | 0.00 | 1.02 | 0.00 | 93 | 1002.6 |
| 20260509192506 | 8 | 267 | 1.6 | 3.2 | 0.00 | 1.02 | 0.00 | 92 | 1002.6 |
| 20260509192005 | 9 | 249 | 1.6 | 3.2 | 0.00 | 1.02 | 0.00 | 93 | 1002.6 |
| 20260509191505 | 8 | 222 | 0.0 | 3.2 | 0.00 | 1.02 | 0.00 | 92 | 1002.6 |
| 20260509191005 | 8 | 190 | 0.0 | 3.2 | 0.00 | 1.02 | 0.00 | 91 | 1002.6 |
| 20260509190006 | 9 | 197 | 1.6 | 3.2 | 0.00 | 1.04 | 0.00 | 90 | 1002.5 |
| 20260509185505 | 10 | 249 | 1.6 | 3.2 | 0.00 | 1.04 | 0.00 | 92 | 1002.3 |
| 20260509185005 | 9 | 269 | 1.6 | 3.2 | 0.00 | 1.04 | 0.00 | 92 | 1002.4 |
| 20260509183505 | 10 | 293 | 1.6 | 1.6 | 0.00 | 1.04 | 0.00 | 91 | 1002.6 |
| 20260509182005 | 10 | 293 | 0.0 | 1.6 | 0.00 | 1.04 | 0.00 | 90 | 1002.6 |
| 20260509181005 | 10 | 293 | 0.0 | 1.6 | 0.00 | 1.04 | 0.00 | 90 | 1002.5 |
| 20260509180005 | 10 | 265 | 1.6 | 4.8 | 0.00 | 1.04 | 0.00 | 90 | 1002.5 |
| 20260509175505 | 10 | 269 | 1.6 | 4.8 | 0.00 | 1.04 | 0.00 | 90 | 1002.5 |
| 20260509175005 | 10 | 234 | 1.6 | 4.8 | 0.00 | 1.04 | 0.00 | 90 | 1002.5 |
| 20260509174505 | 10 | 264 | 0.0 | 3.2 | 0.00 | 1.04 | 0.00 | 90 | 1002.5 |
| 20260509174005 | 10 | 264 | 1.6 | 3.2 | 0.00 | 1.04 | 0.00 | 89 | 1002.4 |
| 20260509173505 | 10 | 268 | 0.0 | 3.2 | 0.00 | 1.04 | 0.00 | 90 | 1002.2 |
| 20260509172505 | 10 | 252 | 1.6 | 4.8 | 0.00 | 1.04 | 0.00 | 90 | 1002.1 |
| 20260509171505 | 10 | 213 | 0.0 | 4.8 | 0.00 | 1.04 | 0.00 | 90 | 1002.1 |
| 20260509171005 | 10 | 256 | 1.6 | 4.8 | 0.00 | 1.04 | 0.00 | 90 | 1002.0 |
| 20260509165505 | 10 | 249 | 1.6 | 4.8 | 0.00 | 1.04 | 0.00 | 91 | 1002.0 |
| 20260509165005 | 10 | 262 | 0.0 | 4.8 | 0.00 | 1.04 | 0.00 | 91 | 1002.0 |
| 20260509163005 | 11 | 314 | 0.0 | 3.2 | 0.00 | 1.04 | 0.00 | 90 | 1002.0 |
| 20260509162005 | 11 | 272 | 1.6 | 4.8 | 0.00 | 1.04 | 0.00 | 91 | 1002.0 |
| 20260509161505 | 11 | 225 | 1.6 | 3.2 | 0.00 | 1.04 | 0.00 | 91 | 1002.0 |
| 20260509161005 | 11 | 248 | 1.6 | 3.2 | 0.00 | 1.04 | 0.00 | 90 | 1002.0 |
| 20260509160005 | 11 | 258 | 1.6 | 4.8 | 0.00 | 1.04 | 0.00 | 90 | 1002.0 |
| 20260509155505 | 11 | 266 | 1.6 | 4.8 | 0.00 | 1.04 | 0.00 | 90 | 1002.1 |
| 20260509155005 | 11 | 255 | 3.2 | 4.8 | 0.00 | 1.04 | 0.00 | 91 | 1002.0 |
| 20260509154505 | 11 | 280 | 1.6 | 4.8 | 0.00 | 1.07 | 0.00 | 91 | 1002.1 |
| 20260509154005 | 11 | 311 | 1.6 | 4.8 | 0.00 | 1.07 | 0.00 | 90 | 1002.3 |
| 20260509153505 | 11 | 277 | 1.6 | 4.8 | 0.00 | 1.09 | 0.00 | 90 | 1002.3 |
| 20260509152505 | 12 | 254 | 3.2 | 4.8 | 0.00 | 1.30 | 0.00 | 91 | 1002.1 |
| 20260509152005 | 12 | 270 | 1.6 | 4.8 | 0.00 | 1.30 | 0.00 | 91 | 1002.1 |
| 20260509151005 | 11 | 259 | 4.8 | 8.0 | 0.00 | 1.32 | 0.00 | 92 | 1002.4 |
| 20260509145005 | 12 | 263 | 1.6 | 3.2 | 0.00 | 1.57 | 0.00 | 91 | 1002.3 |
| 20260509144505 | 12 | 270 | 0.0 | 4.8 | 0.00 | 1.75 | 0.00 | 91 | 1002.4 |
| 20260509144004 | 12 | 255 | 1.6 | 4.8 | 0.00 | 1.75 | 0.00 | 92 | 1002.4 |
| 20260509143505 | 12 | 243 | 3.2 | 4.8 | 0.00 | 1.75 | 0.00 | 92 | 1002.4 |
| 20260509142505 | 12 | 282 | 1.6 | 4.8 | 0.00 | 1.75 | 0.00 | 91 | 1002.4 |
| 20260509142005 | 12 | 271 | 1.6 | 4.8 | 0.00 | 1.75 | 0.00 | 91 | 1002.5 |
| 20260509141505 | 12 | 278 | 1.6 | 4.8 | 0.00 | 1.78 | 0.00 | 91 | 1002.5 |
| 20260509141005 | 12 | 275 | 1.6 | 4.8 | 0.00 | 1.78 | 0.00 | 92 | 1002.5 |
| 20260509135505 | 12 | 242 | 1.6 | 4.8 | 0.00 | 1.83 | 0.00 | 92 | 1002.5 |
| 20260509135005 | 12 | 255 | 1.6 | 4.8 | 0.00 | 1.83 | 0.00 | 92 | 1002.5 |
| 20260509134505 | 12 | 236 | 1.6 | 3.2 | 0.00 | 1.83 | 0.00 | 91 | 1002.5 |
| 20260509134005 | 12 | 270 | 1.6 | 4.8 | 0.00 | 1.85 | 0.00 | 91 | 1002.5 |
| 20260509133505 | 12 | 288 | 0.0 | 4.8 | 0.00 | 1.85 | 0.00 | 92 | 1002.5 |
| 20260509133005 | 12 | 266 | 1.6 | 4.8 | 0.00 | 1.91 | 0.00 | 92 | 1002.5 |
| 20260509132504 | 12 | 273 | 1.6 | 4.8 | 0.00 | 1.93 | 0.00 | 92 | 1002.5 |
| 20260509132005 | 12 | 325 | 3.2 | 4.8 | 0.00 | 1.93 | 0.00 | 92 | 1002.5 |
| 20260509131505 | 12 | 307 | 1.6 | 4.8 | 0.00 | 1.96 | 0.00 | 92 | 1002.8 |
| 20260509131005 | 12 | 285 | 1.6 | 4.8 | 0.00 | 1.96 | 0.00 | 92 | 1003.0 |
| 20260509130004 | 12 | 290 | 1.6 | 4.8 | 0.00 | 1.96 | 0.00 | 93 | 1003.0 |
| 20260509125507 | 12 | 287 | 1.6 | 4.8 | 1.02 | 1.96 | 0.00 | 93 | 1003.0 |
| 20260509124505 | 12 | 240 | 0.0 | 0.0 | 1.02 | 1.98 | 0.00 | 93 | 1003.1 |
| 20260509124005 | 12 | 268 | 0.0 | 0.0 | 1.02 | 2.03 | 0.00 | 93 | 1003.1 |
| 20260509123005 | 12 | 190 | 0.0 | 0.0 | 1.02 | 2.03 | 0.00 | 93 | 1003.0 |
| 20260509122005 | 12 | 233 | 0.0 | 0.0 | 1.02 | 2.03 | 0.00 | 93 | 1003.0 |
| 20260509121505 | 12 | 233 | 0.0 | 0.0 | 1.02 | 2.03 | 0.00 | 92 | 1003.0 |
| 20260509121005 | 12 | 194 | 0.0 | 0.0 | 0.00 | 2.03 | 1.02 | 92 | 1003.0 |
| 20260509115505 | 12 | 179 | 0.0 | 0.0 | 0.00 | 1.27 | 1.02 | 92 | 1003.0 |
| 20260509115005 | 12 | 179 | 0.0 | 0.0 | 0.00 | 1.27 | 1.02 | 92 | 1003.0 |
| 20260509114505 | 12 | 179 | 0.0 | 0.0 | 0.00 | 1.27 | 1.02 | 92 | 1003.0 |
| 20260509114005 | 12 | 179 | 0.0 | 0.0 | 0.00 | 1.27 | 1.02 | 91 | 1002.9 |
| 20260509113504 | 12 | 170 | 0.0 | 0.0 | 0.00 | 1.27 | 1.02 | 91 | 1003.0 |
| 20260509112004 | 13 | 170 | 0.0 | 0.0 | 0.00 | 1.27 | 1.02 | 91 | 1003.0 |
| 20260509111504 | 12 | 170 | 0.0 | 0.0 | 0.00 | 1.27 | 1.02 | 92 | 1003.0 |
| 20260509110005 | 12 | 145 | 0.0 | 0.0 | 0.00 | 1.27 | 1.02 | 92 | 1003.0 |
| 20260509105005 | 12 | 167 | 0.0 | 0.0 | 0.00 | 1.27 | 1.02 | 91 | 1003.1 |
| 20260509104505 | 13 | 140 | 0.0 | 0.0 | 0.00 | 1.27 | 1.02 | 91 | 1003.2 |
| 20260509104005 | 13 | 140 | 0.0 | 0.0 | 0.00 | 1.27 | 1.02 | 91 | 1003.4 |
| 20260509103505 | 13 | 174 | 0.0 | 0.0 | 0.00 | 1.27 | 1.02 | 90 | 1003.4 |
| 20260509103005 | 13 | 339 | 0.0 | 0.0 | 0.00 | 1.27 | 1.02 | 90 | 1003.5 |
| 20260509102505 | 13 | 339 | 0.0 | 0.0 | 0.00 | 1.27 | 1.02 | 90 | 1003.5 |
| 20260509102005 | 13 | 339 | 0.0 | 0.0 | 0.00 | 1.27 | 1.02 | 89 | 1003.5 |
| 20260509101504 | 13 | 339 | 0.0 | 0.0 | 0.00 | 1.27 | 1.02 | 89 | 1003.6 |
| 20260509101005 | 13 | 315 | 0.0 | 0.0 | 0.00 | 1.27 | 1.02 | 89 | 1003.7 |
| 20260509100005 | 13 | 148 | 0.0 | 0.0 | 0.00 | 1.27 | 1.02 | 88 | 1003.7 |
| 20260509095504 | 13 | 148 | 0.0 | 0.0 | 0.00 | 1.27 | 1.02 | 88 | 1003.9 |
| 20260509095005 | 13 | 150 | 0.0 | 0.0 | 0.00 | 1.27 | 1.02 | 87 | 1004.0 |
| 20260509094004 | 13 | 330 | 0.0 | 3.2 | 0.00 | 1.27 | 1.02 | 87 | 1003.9 |
| 20260509092504 | 13 | 249 | 1.6 | 4.8 | 0.00 | 1.27 | 1.02 | 87 | 1004.1 |
| 20260509092004 | 13 | 262 | 0.0 | 0.0 | 0.00 | 1.27 | 1.02 | 87 | 1004.1 |
| 20260509091504 | 13 | 254 | 0.0 | 0.0 | 0.00 | 1.27 | 1.02 | 87 | 1004.1 |
| 20260509091004 | 13 | 224 | 0.0 | 0.0 | 0.00 | 1.27 | 1.02 | 87 | 1004.1 |
| 20260509085504 | 13 | 205 | 0.0 | 0.0 | 0.00 | 1.27 | 1.02 | 86 | 1003.9 |
| 20260509085005 | 13 | 205 | 0.0 | 0.0 | 0.00 | 1.27 | 1.02 | 86 | 1003.8 |
| 20260509084504 | 13 | 205 | 0.0 | 0.0 | 0.00 | 1.27 | 1.02 | 85 | 1003.6 |
| 20260509084004 | 13 | 233 | 0.0 | 0.0 | 0.00 | 1.30 | 1.02 | 85 | 1003.6 |
| 20260509083504 | 13 | 174 | 0.0 | 0.0 | 0.00 | 1.30 | 1.02 | 85 | 1003.6 |
| 20260509083006 | 13 | 165 | 0.0 | 0.0 | 0.00 | 1.30 | 1.02 | 85 | 1003.6 |
| 20260509082506 | 14 | 133 | 0.0 | 0.0 | 0.00 | 1.30 | 1.02 | 85 | 1003.6 |
| 20260509082006 | 14 | 158 | 0.0 | 0.0 | 0.00 | 1.30 | 1.02 | 84 | 1003.6 |
| 20260509081006 | 14 | 185 | 0.0 | 0.0 | 0.00 | 1.30 | 1.02 | 84 | 1003.6 |
| 20260509080006 | 14 | 221 | 0.0 | 0.0 | 0.00 | 1.30 | 1.02 | 85 | 1003.6 |
| 20260509075506 | 14 | 204 | 0.0 | 0.0 | 0.00 | 1.30 | 1.02 | 85 | 1003.6 |
| 20260509075006 | 14 | 185 | 0.0 | 0.0 | 0.00 | 1.30 | 1.02 | 84 | 1003.6 |
| 20260509074506 | 14 | 222 | 0.0 | 0.0 | 0.00 | 1.30 | 1.02 | 84 | 1003.6 |
| 20260509074006 | 14 | 223 | 0.0 | 0.0 | 0.00 | 1.30 | 1.02 | 84 | 1003.6 |
| 20260509072506 | 14 | 253 | 0.0 | 1.6 | 0.00 | 1.30 | 1.02 | 84 | 1003.5 |
| 20260509072006 | 15 | 268 | 0.0 | 3.2 | 0.00 | 1.30 | 1.02 | 83 | 1003.6 |
| 20260509071006 | 15 | 226 | 0.0 | 4.8 | 0.00 | 1.30 | 1.02 | 82 | 1003.6 |
| 20260509070006 | 15 | 266 | 3.2 | 8.0 | 0.00 | 1.30 | 1.02 | 82 | 1003.5 |
| 20260509065506 | 15 | 303 | 3.2 | 8.0 | 0.00 | 1.30 | 1.02 | 82 | 1003.5 |
| 20260509065006 | 15 | 266 | 3.2 | 8.0 | 0.00 | 1.30 | 1.02 | 82 | 1003.4 |
| 20260509064506 | 15 | 253 | 3.2 | 4.8 | 0.00 | 1.30 | 1.02 | 82 | 1003.2 |
| 20260509064006 | 15 | 244 | 0.0 | 3.2 | 0.00 | 1.30 | 1.02 | 82 | 1003.1 |
| 20260509063506 | 15 | 281 | 0.0 | 4.8 | 0.00 | 1.30 | 1.02 | 82 | 1003.1 |
| 20260509062006 | 15 | 273 | 3.2 | 4.8 | 0.00 | 1.30 | 1.02 | 82 | 1003.1 |
| 20260509061006 | 15 | 291 | 1.6 | 8.0 | 0.00 | 1.30 | 1.02 | 81 | 1003.0 |
| 20260509060005 | 16 | 272 | 3.2 | 8.0 | 0.00 | 1.30 | 1.02 | 80 | 1003.0 |
| 20260509054505 | 16 | 313 | 0.0 | 4.8 | 0.00 | 1.30 | 1.02 | 80 | 1003.0 |
| 20260509054006 | 16 | 279 | 1.6 | 4.8 | 0.00 | 1.30 | 1.02 | 79 | 1003.0 |
| 20260509053506 | 16 | 297 | 1.6 | 8.0 | 0.00 | 1.30 | 1.02 | 79 | 1003.1 |
| 20260509053006 | 16 | 272 | 3.2 | 8.0 | 0.00 | 1.30 | 1.02 | 79 | 1003.1 |
| 20260509052505 | 16 | 283 | 1.6 | 4.8 | 0.00 | 1.30 | 1.02 | 79 | 1003.0 |
| 20260509051506 | 16 | 302 | 0.0 | 4.8 | 0.00 | 1.30 | 1.02 | 79 | 1003.0 |
| 20260509045505 | 17 | 285 | 3.2 | 14.5 | 0.00 | 1.30 | 1.02 | 78 | 1003.0 |
| 20260509045006 | 17 | 280 | 6.4 | 14.5 | 0.00 | 1.30 | 1.02 | 78 | 1003.0 |
| 20260509044505 | 17 | 287 | 4.8 | 12.9 | 0.00 | 1.30 | 1.02 | 77 | 1003.0 |
| 20260509044006 | 17 | 280 | 6.4 | 19.3 | 0.00 | 1.30 | 1.02 | 76 | 1003.0 |
| 20260509042505 | 17 | 279 | 4.8 | 11.3 | 0.00 | 1.30 | 1.02 | 76 | 1003.0 |
| 20260509041506 | 17 | 291 | 4.8 | 16.1 | 0.00 | 1.30 | 1.02 | 75 | 1003.0 |
| 20260509041005 | 17 | 276 | 6.4 | 16.1 | 0.00 | 1.30 | 1.02 | 74 | 1003.0 |
| 20260509040006 | 17 | 290 | 4.8 | 16.1 | 0.00 | 1.30 | 1.02 | 73 | 1003.0 |
| 20260509035506 | 18 | 273 | 3.2 | 16.1 | 0.00 | 1.30 | 1.02 | 73 | 1003.1 |
| 20260509035006 | 18 | 292 | 4.8 | 14.5 | 0.00 | 1.30 | 1.02 | 72 | 1003.3 |
| 20260509034505 | 18 | 278 | 3.2 | 9.7 | 0.00 | 1.30 | 1.02 | 72 | 1003.4 |
| 20260509034005 | 18 | 301 | 3.2 | 9.7 | 0.00 | 1.30 | 1.02 | 71 | 1003.5 |
| 20260509033505 | 19 | 297 | 4.8 | 14.5 | 0.00 | 1.30 | 1.02 | 70 | 1003.4 |
| 20260509033006 | 19 | 282 | 4.8 | 19.3 | 0.00 | 1.30 | 1.02 | 70 | 1003.4 |
| 20260509032506 | 19 | 273 | 8.0 | 19.3 | 0.00 | 1.30 | 1.02 | 68 | 1003.3 |
| 20260509032005 | 19 | 288 | 8.0 | 19.3 | 0.00 | 1.30 | 1.02 | 69 | 1003.4 |
| 20260509031506 | 19 | 316 | 6.4 | 20.9 | 0.00 | 1.30 | 1.02 | 68 | 1003.3 |
| 20260509031006 | 19 | 290 | 8.0 | 20.9 | 0.00 | 1.30 | 1.02 | 68 | 1003.3 |
| 20260509030006 | 19 | 287 | 3.2 | 20.9 | 0.00 | 1.30 | 1.02 | 69 | 1003.3 |
| 20260509025505 | 19 | 292 | 6.4 | 20.9 | 0.00 | 1.30 | 1.02 | 69 | 1003.2 |
| 20260509025006 | 19 | 262 | 8.0 | 27.4 | 0.00 | 1.30 | 1.02 | 70 | 1003.2 |
| 20260509024506 | 19 | 294 | 8.0 | 27.4 | 0.00 | 1.30 | 1.02 | 70 | 1003.3 |
| 20260509024005 | 19 | 287 | 11.3 | 20.9 | 0.00 | 1.30 | 1.02 | 68 | 1003.3 |
| 20260509023505 | 19 | 252 | 9.7 | 20.9 | 0.00 | 1.30 | 1.02 | 68 | 1003.5 |
| 20260509023005 | 19 | 280 | 9.7 | 19.3 | 0.00 | 1.30 | 1.02 | 67 | 1003.5 |
| 20260509022506 | 19 | 274 | 6.4 | 19.3 | 0.00 | 1.30 | 1.02 | 70 | 1003.6 |
| 20260509021505 | 19 | 315 | 8.0 | 22.5 | 0.00 | 1.30 | 1.02 | 72 | 1003.6 |
| 20260509021006 | 19 | 288 | 6.4 | 22.5 | 0.00 | 1.30 | 1.02 | 71 | 1003.7 |
| 20260509020005 | 18 | 269 | 8.0 | 19.3 | 0.00 | 1.30 | 1.02 | 73 | 1003.8 |
| 20260509015506 | 18 | 275 | 4.8 | 22.5 | 0.00 | 1.30 | 1.02 | 74 | 1003.8 |
| 20260509014506 | 18 | 276 | 11.3 | 22.5 | 0.00 | 1.30 | 1.02 | 72 | 1003.9 |
| 20260509014006 | 18 | 270 | 9.7 | 20.9 | 0.00 | 1.30 | 1.02 | 74 | 1003.8 |
| 20260509013505 | 18 | 291 | 8.0 | 19.3 | 0.00 | 1.30 | 1.02 | 74 | 1003.9 |
| 20260509012505 | 18 | 269 | 9.7 | 20.9 | 0.00 | 1.30 | 1.02 | 73 | 1004.0 |
| 20260509012005 | 18 | 323 | 9.7 | 24.1 | 0.00 | 1.30 | 1.02 | 74 | 1004.0 |
| 20260509011505 | 18 | 299 | 9.7 | 24.1 | 0.00 | 1.30 | 1.02 | 73 | 1004.0 |
| 20260509011006 | 18 | 287 | 8.0 | 20.9 | 0.00 | 1.30 | 1.02 | 75 | 1004.0 |
| 20260509010005 | 18 | 281 | 8.0 | 19.3 | 0.00 | 1.30 | 1.02 | 73 | 1004.1 |
| 20260509005505 | 18 | 304 | 6.4 | 19.3 | 0.00 | 1.30 | 1.02 | 74 | 1004.2 |
| 20260509005006 | 18 | 320 | 8.0 | 27.4 | 0.00 | 1.30 | 1.02 | 75 | 1004.4 |
| 20260509004506 | 18 | 270 | 9.7 | 27.4 | 0.00 | 1.30 | 1.02 | 74 | 1004.5 |
| 20260509004006 | 18 | 285 | 11.3 | 19.3 | 0.00 | 1.30 | 1.02 | 73 | 1004.5 |
| 20260509003506 | 18 | 281 | 8.0 | 19.3 | 0.00 | 1.30 | 1.02 | 73 | 1004.5 |
| 20260509003006 | 18 | 294 | 6.4 | 19.3 | 0.00 | 1.30 | 1.02 | 72 | 1004.6 |
| 20260509002505 | 18 | 295 | 4.8 | 20.9 | 0.00 | 1.30 | 1.02 | 75 | 1004.6 |
| 20260509002005 | 18 | 293 | 8.0 | 20.9 | 0.00 | 1.30 | 1.02 | 72 | 1004.9 |
| 20260509001506 | 18 | 290 | 9.7 | 20.9 | 0.00 | 1.30 | 1.02 | 72 | 1005.0 |
| 20260509001006 | 18 | 279 | 8.0 | 20.9 | 0.00 | 1.30 | 1.02 | 74 | 1005.0 |
| 20260509000005 | 18 | 294 | 8.0 | 22.5 | 0.00 | 1.30 | 1.02 | 77 | 1005.2 |
| 20260508235505 | 18 | 309 | 11.3 | 22.5 | 0.00 | 1.30 | 1.02 | 78 | 1005.3 |
| 20260508235005 | 18 | 276 | 9.7 | 19.3 | 0.00 | 1.30 | 1.02 | 78 | 1005.4 |